LogoCoinalyze
    Ad-Free Version Inicio Mercados Tasas de Financiamiento
    Datos de futuros
    • Datos agregados (Monedas)
    • Gráficos individuales
    • Gráficos globales
    Alertas
    TA
    Bitcoin Ethereum BNB Ripple Tron ZCash Dogecoin Monero UNUS SED LEO Chainlink Cardano Stellar Lumens Bitcoin Cash Litecoin Hedera Cronos Polkadot Ethereum Classic Algorand Quant Cosmos VeChain Dash Bitcoin SV BitTorrent Terra Decred Tezos Iota The Graph THETA Decentraland NEO Chiliz MultiversX Golem Basic Attention Token Horizen Qtum 0x DigiByte Beam RIF Token FTX Token Holo FUNToken Zilliqa Ontology Nano aelf Enjin Coin Ravencoin Mask Network Siacoin Verge Status WINk Waves IoTeX iExec RLC Power Ledger Steem Kyber Network Crystal Lisk Ark Ardor WOO Network IOST WAX Icon Storj Loopring Wanchain Bitcoin Diamond AdEx Bitcoin Gold Augur OmiseGO NEM MonaCoin BitShares Ren Komodo V Systems Nuls Mithril SOLVE Maker EOS Aion Nebulas HedgeTrade Bread Fetch.ai TomoChain Polygon Fantom Waltonchain GXChain Bytom Metaverse ETP MaidSafeCoin QASH
    Ordenar por:
    Más
    • API
    • Patrones de velas
    • Donar
    • Contacto
    • Mapa del Sitio
    • Privacy Policy
    • Disclaimer
    • Theme:
    Español
    • English
    • Français
    • Русский
    • Deutsch
    • Türkçe
    • Nederlands
    • Português (BR)
    • 한국어
    • 简体中文
    • 日本語
     
    Iniciar sesión / Registrar
    Markets/ Pepe/ PEPE a EUR/ PEPEEUR Bybit
    Trades
    WL
    Chat
    Estad.
    Noticias
    ⦷
    AAA
    0.00000293 6247276.00000000 14:57:29
    0.00000294 3384862.00000000 14:52:11
    0.00000294 3083715.00000000 14:52:11
    0.00000294 3039579.00000000 14:34:34
    0.00000294 3071508.00000000 14:34:34
    0.00000294 2429258.00000000 14:32:58
    0.00000294 3229693.00000000 14:32:58
    0.00000295 3126673.00000000 14:15:19
    0.00000295 2897281.00000000 14:15:19
    0.00000295 2341739.00000000 14:14:54
    0.00000295 3057980.00000000 14:14:54
    0.00000295 32446653.00000000 14:08:22
    0.00000295 3506721.00000000 14:08:22
    0.00000294 62758741.00000000 13:52:10
    0.00000296 62758741.00000000 13:45:35
    0.00000295 87783467.00000000 13:43:51
    0.00000293 30846063.00000000 13:41:52
    0.00000292 3044678.00000000 13:39:51
    0.00000292 3111029.00000000 13:39:51
    0.00000292 3160708.00000000 13:34:05
    0.00000293 3221522.00000000 13:34:05
    0.00000293 6245110.00000000 13:26:57
    0.00000293 27369040.00000000 13:26:57
    0.00000293 27369040.00000000 13:26:57
    0.00000293 2482940.00000000 13:16:37
    0.00000293 3342099.00000000 13:16:37
    0.00000295 3269452.00000000 12:31:07
    0.00000295 3070654.00000000 12:31:07
    0.00000295 3106683.00000000 12:24:11
    0.00000295 2765949.00000000 12:24:11
    0.00000293 3330872.00000000 11:31:24
    0.00000294 3279847.00000000 11:31:24
    0.00000293 2603652.00000000 11:29:37
    0.00000293 3455598.00000000 11:29:37
    0.00000293 3267565.00000000 11:28:46
    0.00000293 2712369.00000000 11:28:46
    0.00000294 14687181.00000000 11:09:58
    0.00000294 30247730.00000000 10:56:32
    0.00000294 35640648.00000000 10:56:32
    0.00000294 11192930.00000000 10:56:32
    0.00000292 30168589.00000000 10:51:18
    0.00000292 27210884.00000000 10:51:18
    0.00000292 7826226.00000000 10:50:43
    0.00000293 109671046.00000000 10:49:47
    0.00000293 109671046.00000000 10:49:47
    0.00000296 2444373.00000000 10:47:33
    0.00000296 2586747.00000000 10:47:27
    0.00000296 3206862.00000000 10:47:20
    0.00000296 2907600.00000000 10:46:39
    0.00000296 2651928.00000000 10:46:33
    0.00000296 2985681.00000000 10:46:01
    0.00000296 3348011.00000000 10:45:55
    0.00000296 2875135.00000000 10:45:50
    0.00000296 3074903.00000000 10:45:04
    0.00000296 3224633.00000000 10:44:59
    0.00000296 2659924.00000000 10:44:38
    0.00000296 3332504.00000000 10:44:33
    0.00000296 2627268.00000000 10:44:27
    0.00000296 3335459.00000000 10:44:21
    0.00000296 3194838.00000000 10:44:10
    0.00000296 2722606.00000000 10:44:04
    0.00000296 2474084.00000000 10:43:42
    0.00000296 2493024.00000000 10:43:37
    0.00000296 2387056.00000000 10:43:02
    0.00000296 3377835.00000000 10:42:57
    0.00000296 3174402.00000000 10:42:47
    0.00000296 2770616.00000000 10:42:20
    0.00000296 2714565.00000000 10:40:56
    0.00000296 2584972.00000000 10:40:51
    0.00000296 3040150.00000000 10:39:35
    0.00000296 3414639.00000000 10:39:28
    0.00000296 2806723.00000000 10:38:50
    0.00000296 2549543.00000000 10:38:45
    0.00000296 2486333.00000000 10:38:23
    0.00000296 2624089.00000000 10:37:15
    0.00000296 2911743.00000000 10:37:05
    0.00000296 3145067.00000000 10:36:55
    0.00000296 2997368.00000000 10:36:49
    0.00000296 2922713.00000000 10:36:43
    0.00000296 3026566.00000000 10:36:28
    0.00000296 3321795.00000000 10:36:22
    0.00000296 2938441.00000000 10:36:05
    0.00000296 2343330.00000000 10:36:00
    0.00000296 2986249.00000000 10:34:35
    0.00000296 2999763.00000000 10:34:29
    0.00000296 3410997.00000000 10:34:24
    0.00000296 2437708.00000000 10:34:02
    0.00000296 2633318.00000000 10:33:27
    0.00000296 3339410.00000000 10:33:16
    0.00000296 3507885.00000000 10:32:58
    0.00000296 2966667.00000000 10:32:00
    0.00000296 2610219.00000000 10:31:55
    0.00000296 2999826.00000000 10:29:50
    0.00000296 3362413.00000000 10:29:44
    0.00000296 2713329.00000000 10:29:22
    0.00000296 2511251.00000000 10:29:13
    0.00000296 2368948.00000000 10:28:17
    0.00000296 2376833.00000000 10:28:12
    0.00000296 3390547.00000000 10:28:07
    0.00000296 3409502.00000000 10:27:23
    Desconectar
    AAA
    Ayuda
    🙂 🤣 😎 🤗 😛 😉 😜 🤑 🤔 😑 😴 😕 🙃 😲 😇 🙁 😢 😬 😟 😠 🕺 🏃 💪 ✌ 👌 👍 👎 👏 👋 🤝 🍺 🍻 🐋 🐟 🦈 🗽 🚄 ✈ 🛑 🚀 🏦 🌚 ⭐ 🌞 ⚡ 🏆 💰 💲 🔨 ❓ ❗ 💯 🔶 🏁
    ☺
    Iniciar sesión o Registrar y chatea
    24 Horas
    Variación
    -3.17%
    Volumen
    6,342,692,661
    Máx.
    0.00000307
    Mín.
    0.00000289
    7 Días
    Variación
    -10.42%
    Volumen
    77,530,102,252
    Máx.
    0.00000345
    Mín.
    0.00000289
    30 Días
    Variación
    +16.30%
    Volumen
    560,457,156,365
    Máx.
    0.00000388
    Mín.
    0.00000220
    Pepe price rallies 25% as whale demand and futures interest surge
    Key takeaways Pepe has gained 25% this week, including a combined 22% advance over the previous two days. Seven whale transactions worth more than $1 million each occurred Thursday, the highest...
    coinjournal.net
    Aug 21, 2026 08:41
    PEPE Supply on Exchanges Just Took a Massive Hit – What’s Next?
    A drop in PEPE exchange balances has added to bullish expectations despite muted trader interest.
    cryptopotato.com
    Aug 6, 2026 20:02
    PEPE Exchange Outflows Hit Nearly 2-Year High as Whales Accumulate
    Pepe (PEPE) recorded its largest single-day exchange outflow since November 2024, with 4.54 trillion tokens leaving trading platforms, signaling that holders are moving supply away from immediate...
    beincrypto.com
    Aug 6, 2026 04:57
    Meme Coin Based on White House Shooter Conspiracy Rallies 320%
    $HENRY surged 300% after a 2023 Pepe tweet appeared to name the White House shooter, fueling a viral time-travel meme. The post Meme Coin Based on White House Shooter Conspiracy Rallies 320%...
    beincrypto.com
    Apr 27, 2026 16:11
    PEPE surges 4% as market sentiment improves, eyes Key resistance breakout
    Key takeaways Pepe extends gains on Wednesday, stretching its rally from the 50-day EMA. Derivatives data show heightened retail activity as risk-on sentiment returns to the market. Pepe (PEPE) is...
    coinjournal.net
    Apr 22, 2026 11:44
    Why The PEPE Price Could Stage A 55X Rally To Reach New $0.0001 ATH
    The PEPE price has now started to edge back into bullish conversations after the recent inflows into the crypto market. The last time PEPE’s weekly chart printed the kind of structure now...
    newsbtc.com
    Apr 21, 2026 15:30
    Pepe (PEPE) surges 9%, drawing interest from whales
    Key takeaways PEPE is up 9% in the last 24 hours, making it one of the best performers among the top 50 cryptocurrencies by market cap. The rally comes amid renewed interest from whales and retail...
    coinjournal.net
    Apr 16, 2026 07:40
    Murad Says SPX6900 (SPX) Is Primed for a Rally — Is He Right This Time?
    Crypto influencer Murad Mahmudov claims SPX6900 (SPX) is stabilizing at the same market cap level where Dogecoin (DOGE) and Pepe (PEPE) consolidated before their explosive rallies. The...
    beincrypto.com
    Apr 5, 2026 21:36
    The Shiba Inu Of This Cycle: Analyst Shares Why It Is Better To Buy PEPE Now
    In the bull market cycle of 2021-2022, the Shiba Inu meme coin made waves in a way that changed the face of meme coins forever. This came after Dogecoin’s initial 36,000% rally, and Shiba Inu...
    newsbtc.com
    Apr 4, 2026 07:30
    PEPE Explodes by 18% Amid Altcoin Rally, BTC Tapped $74K: Market Watch
    The frog-themed meme coin is today's biggest gainer, followed by TAO, DOT, and BONK.
    cryptopotato.com
    Mar 16, 2026 10:56
    Should PEPE traders brace for volatility as short squeeze potential builds?
    The memecoin market has seen its collective market capitalization drop by 48% over the past year, and 6.9% over the past month, according to CoinMarketCap. According to Glassnode, the memecoin...
    ambcrypto.com
    Mar 7, 2026 18:00
    Simplemente teclea el comando en el chat. Sustituir nick1 por el apodo real.
    • /ignore nick1 Ignorar un usuario del chat
    • /unignore nick1 Dejar de ignorar un usuario del chat
    • /ignorelist Mostrar usuarios del chat que has ignorado